TITAN 3C TRANSTAGE DEB, 39298

Orbit data source: Space-Track

TITAN 3C TRANSTAGE DEB, 39298 is space debris originally from a launch on Thu, 26 Sep 1968 UTC launched from the Air Force Eastern Test Range (AFETR). Debris objects in space refer to the collection of defunct objects orbiting the Earth. Examples of debris include non-operational satellites, rocket bodies, and fragments generated from explosions, collisions, or faulty payload assembly.

Not visible in the next 10 days
TITAN 3C TRANSTAGE DEB details
Identifier
39298, 1968-081AJ
Orbit
Active
Last TLE update18 hours ago
Origin
Flag of USUSAF SSD (US)
ManufacturerUnknown
MissionSpacecraft
Bus & MotorUnknown
MassUnknown
Launch date (UTC)
1968-09-26 (56 years ago)
Launch vehicleUnknown
Launch site
Air Force Eastern Test Range (AFETR)
Object type
Payload
Rocket body
Debris
Shape & HBRUnknown
Radar Cross SectionRCS unknown

Expand to show TLE details & history

TLE from 18 hours ago
0 TITAN 3C TRANSTAGE DEB
1 39298U 68081AJ  24336.71422844 -.00000284  00000-0  00000-0 0  9999
2 39298   1.5019 341.0486 0154699 352.9228  93.0123  1.00125044 60652
Epoch: 2024-12-01T17:08Z
Definitive object data (Epoch: 2024-12-01T17:08:29.337Z)
Latitude1.52589°
Longitude100.53719°
Altitude35,871.139 km
Speed3.07 km/s
True Right ascension04h 34m 49s
True Declination1° 31' 28"
Sunlit
Object was in daylight at TLE epoch
Visualization TLE readout
Latitude0.0159°
Longitude13.17408°
Altitude35,183.168 km
Speed3.12 km/s
Apparent Right ascension22h 35m 34s
Apparent Declination-5° 02' 00"
Sunlit
Object is in daylight
Visualization observer readout
Local Sidereal Time09:10:29
Azimuth325.631° NNW
Elevation-50.2°
Doppler factor1
Orbital elements
Apogee altitude36,481.789 km
Perigee altitude35,175.913 km
Semi-major axis42,206.988 km
Eccentricity0.0154699
Inclination1.5019°
RAAN341.0486°
Arg. of periapsis352.9228°
True anomaly94.78049°
Mean anomaly93.0123°
Eccentric anomaly93.89661°
Mean motion0.2503 °/min
BSTARUnknown
Orbital period1438.25 mins
Loading maneuver chart data...

TITAN 3C TRANSTAGE DEB Visibility forecast

Observer location: undefined°, undefined

TITAN 3C TRANSTAGE DEB is not visible in the next 10 days
Span
Click to sort rows by Start time (UTC) header in descending order
Start Az.
Max El. time (UTC)
Max El. Az.
Max El.
End time (UTC)
End Az.
|